Kenora, Ontario

4:00 PM CDT on October 18, 2017 (GMT -0500)
Kenora

Weather History for CYQK - January, 2013

Change the Weather History Date:

Friday, January 18, 2013

  Actual Average Record
Temperature  
Mean Temperature -6 °F -  
Max Temperature 5 °F 13 °F 32 °F (2017)
Min Temperature -16 °F -5 °F -22 °F (2011)
Degree Days  
Heating Degree Days 70    
Moisture  
Dew Point -7 °F    
Average Humidity 77    
Maximum Humidity 85    
Minimum Humidity 57    
Precipitation  
Precipitation 0.02 in 0.03 in - ()
Sea Level Pressure  
Sea Level Pressure 30.01 in    
Wind  
Wind Speed 6 mph ()    
Max Wind Speed 10 mph    
Max Gust Speed -    
Visibility 7.2 miles    
Events Snow    
Averages and records for this station are not official NWS values.
T = Trace of Precipitation, MM = Missing Value Source: Averaged Metar Reports

Daily Weather History Graph

Daily Weather History Graph

Search for Another Location

Airport or City:

Trip Planner

Search our weather history database for the weather conditions in past years. The results will help you decide how hot, cold, wet, or windy it might be!

Date:

Astronomy

Jan. 18, 2013 Rise Set
Actual Time 8:06 AM CST 4:50 PM CST
Civil Twilight 7:30 AM CST 5:26 PM CST
Nautical Twilight 6:50 AM CST 6:06 PM CST
Astronomical Twilight 6:11 AM CST 6:44 PM CST
Moon 10:57 AM CST 12:26 AM CST
Length of Visible Light 9h 56m
Length of Day
8h 43m
Waxing Crescent, 47% of the Moon is Illuminated
Jan 18
Waxing Crescent
Jan 18
First Quarter
Jan 26
Full
Feb 3
Last Quarter
Feb 10
New

Hourly Weather History & Observations

Time (CST) Temp. Windchill Dew Point Humidity Pressure Visibility Wind Dir Wind Speed Gust Speed Precip Events Conditions
12:00 AM -13 °F - -20 °F 57% 30.28 in 15 mi SSW 3.5 mph - -   Scattered Clouds
12:00 AM -13.0 °F -22.7 °F -20.2 °F 70% 30.28 in 15.0 mi South 3.5 mph - N/A   Mostly Cloudy
1:00 AM -13.0 °F -27.0 °F -18.4 °F 77% 30.25 in 15.0 mi SSE 5.8 mph - N/A   Mostly Cloudy
2:00 AM -11.2 °F -27.8 °F -18.4 °F 70% 30.23 in 15.0 mi ESE 8.1 mph - N/A   Mostly Cloudy
3:00 AM -11.2 °F -24.8 °F -18.4 °F 70% 30.20 in 15.0 mi SE 5.8 mph - N/A   Mostly Cloudy
4:00 AM -9.4 °F -22.7 °F -16.6 °F 71% 30.16 in 15.0 mi SE 5.8 mph - N/A   Mostly Cloudy
4:22 AM - - - N/A% - 5.0 mi SSE 6.9 mph - N/A   Unknown
5:00 AM -7.6 °F -22.1 °F -13.0 °F 77% 30.13 in 5.0 mi East 6.9 mph - N/A Snow Light Snow
6:00 AM -8 °F - -13 °F 70% 30.10 in 5 mi East 9.2 mph - - Snow Light Snow
6:00 AM -7.6 °F -23.4 °F -13.0 °F 77% 30.10 in 5.0 mi ESE 8.1 mph - N/A Snow Light Snow
7:00 AM -5.8 °F -21.2 °F -11.2 °F 77% 30.05 in 8.0 mi SE 8.1 mph - N/A Snow Light Snow
8:00 AM -4.0 °F -20.2 °F -9.4 °F 78% 30.03 in 4.0 mi ESE 9.2 mph - N/A Snow Light Snow
9:00 AM -4.0 °F -19.0 °F -7.6 °F 85% 30.02 in 4.0 mi East 8.1 mph - N/A Snow Light Snow
9:06 AM - - - N/A% - 2.0 mi East 8.1 mph - N/A   Unknown
10:00 AM -0.4 °F -15.7 °F -5.8 °F 78% 30.00 in 3.0 mi ESE 9.2 mph - N/A Snow Light Snow
11:00 AM 1.4 °F -11.3 °F -4.0 °F 78% 29.98 in 8.0 mi ESE 6.9 mph - N/A Snow Light Snow
12:00 PM 3 °F - -2 °F 71% 29.93 in 12 mi East 8.1 mph - - Snow Light Snow
12:00 PM 3.2 °F -10.3 °F -2.2 °F 78% 29.93 in 12.0 mi East 8.1 mph - N/A Snow Light Snow
1:00 PM 3.2 °F -10.3 °F -2.2 °F 78% 29.91 in 10.0 mi NE 8.1 mph - N/A Snow Light Snow
2:00 PM 5.0 °F -8.1 °F -0.4 °F 78% 29.90 in 12.0 mi East 8.1 mph - N/A Snow Light Snow
3:00 PM 5.0 °F -8.1 °F -0.4 °F 78% 29.89 in 5.0 mi ENE 8.1 mph - N/A Snow Light Snow
4:00 PM 5.0 °F -8.1 °F -0.4 °F 78% 29.89 in 8.0 mi ENE 8.1 mph - N/A Snow Light Snow
5:00 PM 5.0 °F -5.6 °F 1.4 °F 85% 29.90 in 6.0 mi East 5.8 mph - N/A Snow Light Snow
5:22 PM - - - N/A% - 2.5 mi East 6.9 mph - N/A   Unknown
6:00 PM 5 °F - 1 °F 78% 29.90 in 2 mi East 5.8 mph - - Snow Light Snow
6:00 PM 5.0 °F -5.6 °F 1.4 °F 85% 29.90 in 2.5 mi East 5.8 mph - N/A Snow Light Snow
7:00 PM 5.0 °F -6.9 °F 1.4 °F 85% 29.89 in 4.0 mi East 6.9 mph - N/A Snow Light Snow
8:00 PM 5.0 °F -5.6 °F 1.4 °F 85% 29.89 in 6.0 mi East 5.8 mph - N/A Snow Light Snow
8:07 PM - - - N/A% - 2.0 mi East 5.8 mph - N/A   Unknown
9:00 PM 5.0 °F -8.1 °F 1.4 °F 85% 29.87 in 2.0 mi East 8.1 mph - N/A Snow Light Snow
10:00 PM 5.0 °F -10.0 °F 1.4 °F 85% 29.84 in 3.0 mi East 10.4 mph - N/A Snow Light Snow
11:00 PM 5.0 °F -5.6 °F 1.4 °F 85% 29.84 in 2.0 mi East 5.8 mph - N/A Snow Light Snow